User: anonymous   Login
Location: Lake Runnemede Observatory
(43.4843°N, 72.3851°W)
Time: 21:07:04
(UTC-04:00)
Language:

SPOT 5 - Orbit

View from above orbital plane
View from above orbital plane
View from above satellite
View from above satellite

Ground track
Ground track

The orbit data is extracted from the following two-line orbital elements,

1 27421U 02021A   16150.47390652  .00000032  00000-0  18568-4 0  9997
2 27421  98.4584 206.1756 0136691  62.6152 298.8877 14.51799094729995
Epoch (UTC): 29 May 2016 11:22:25
Eccentricity: 0.0136691
inclination: 98.4584°
perigee height: 623 km
apogee height: 817 km
right ascension of ascending node: 206.1756°
argument of perigee: 62.6152°
revolutions per day: 14.51799094
mean anomaly at epoch: 298.8877°
orbit number at epoch: 72999

The dashed part of the orbit path shows where the satellite is in the earth's shadow,  

DLR